Wind_Speed
36 35 35 35 35 34 34 33 33 32 32 32 31 31 30 31 31 31 30 30 30 30 30 30 30 30 30 30 31 31 32 32 32 32 33 33 32 32 32 32 32 32 32
37 37 37 37 37 36 35 35 35 35 34 34 34 34 33 33 33 32 32 32 32 32 32 32 32 32 32 32 32 33 33 33 33 33 34 34 34 34 34 34 34 34 34
38 38 39 38 38 38 38 37 37 37 37 37 37 36 36 35 35 34 34 34 34 34 34 34 34 34 34 34 34 35 34 34 35 35 34 34 34 35 35 35 36 37 37
40 40 40 40 40 39 39 39 38 39 39 39 38 38 37 37 37 37 36 36 35 35 35 35 35 36 36 36 36 36 36 36 36 36 36 36 36 36 36 37 38 38 38
40 40 40 40 41 41 40 40 40 40 40 40 40 40 39 39 39 40 39 37 36 36 36 36 37 37 37 37 37 37 37 37 37 37 37 37 37 38 38 39 39 39 39
40 40 40 41 41 42 42 42 42 41 42 41 41 41 41 40 40 41 40 39 39 39 38 38 38 38 38 39 39 39 39 39 39 38 39 39 39 40 41 41 41 41 41
41 41 40 41 41 41 42 42 42 42 42 43 44 44 44 43 42 42 42 40 40 41 40 40 40 40 40 40 41 40 40 40 40 40 40 40 41 42 42 42 41 42 42
40 41 41 41 41 41 41 41 41 42 43 43 44 45 45 45 44 43 43 42 41 42 42 42 42 42 41 41 42 41 40 40 40 40 41 41 42 42 42 42 42 43 43
41 41 41 41 41 41 41 41 40 41 41 42 43 45 45 44 44 44 43 43 43 43 44 44 43 43 43 42 41 40 40 41 41 41 42 41 41 41 42 43 43 43 44
40 40 40 40 41 42 42 42 41 41 41 42 43 44 44 44 44 43 43 43 44 44 44 44 44 44 44 42 41 41 41 41 41 42 41 41 41 42 42 43 43 43 44
40 40 40 40 41 41 41 41 41 41 41 42 42 42 42 42 43 44 44 44 45 45 45 45 46 45 44 43 42 42 42 42 42 42 42 41 42 43 43 43 43 44 44
39 39 40 41 40 40 41 41 40 41 41 42 42 42 42 42 42 42 43 44 45 45 46 46 46 46 45 45 44 44 44 43 43 44 43 43 43 43 43 44 44 45 45
39 40 40 40 40 40 40 40 40 40 41 40 41 41 41 41 40 41 41 42 43 43 44 45 45 45 44 44 45 45 45 45 45 44 44 44 44 44 44 45 46 47 47
40 41 41 40 40 40 40 40 40 40 40 40 39 39 39 40 40 41 41 42 42 42 43 44 44 43 43 43 44 44 45 46 46 45 45 45 45 45 46 46 46 48 48
39 40 41 40 40 40 39 39 39 39 39 39 38 38 39 39 39 40 40 41 41 41 42 42 42 42 42 42 43 43 44 44 45 45 45 45 46 47 47 47 48 49 48
37 38 38 38 38 38 38 38 38 38 38 39 39 39 39 38 38 39 39 39 40 40 40 40 40 41 41 41 42 42 43 44 45 45 46 46 47 47 48 49 49 48 47
36 37 37 37 37 37 37 38 38 38 38 38 39 39 39 39 39 39 39 38 39 40 39 38 39 40 40 41 41 42 42 43 44 45 46 47 47 47 48 49 49 47 46
35 36 36 36 36 36 36 37 37 37 37 38 38 38 38 39 39 39 39 39 39 39 39 38 38 38 39 40 40 41 42 43 44 45 46 47 48 48 49 50 49 48 46
34 35 36 36 36 36 36 36 36 36 36 36 37 37 37 37 38 37 37 38 38 38 37 37 37 38 38 39 40 41 42 43 44 45 45 46 48 48 49 49 48 46 45
32 33 34 35 36 36 35 35 35 35 35 35 34 34 34 34 35 36 36 37 37 37 37 37 38 38 37 39 40 41 43 44 45 46 46 46 47 48 48 47 45 44 43
30 31 32 33 34 34 34 34 35 34 34 33 33 33 33 34 35 36 36 36 36 37 37 37 38 38 39 40 40 41 42 44 45 45 46 46 47 46 45 45 44 43 42
29 29 30 31 32 32 33 33 33 33 33 33 34 34 34 35 35 35 36 36 36 36 37 37 37 38 39 40 41 41 43 44 44 44 44 44 44 44 42 41 41 40 39
28 28 29 30 30 31 31 31 31 32 32 32 32 33 33 34 34 35 35 35 35 36 36 37 38 38 39 40 41 42 43 43 43 42 42 41 41 41 40 39 39 39 37
27 28 29 29 30 30 31 31 31 31 31 31 31 32 32 33 33 34 34 34 35 36 36 37 38 38 39 40 40 41 42 42 42 41 41 40 41 40 40 39 38 37 36
26 27 28 29 29 29 30 30 29 29 30 30 31 31 32 33 34 34 34 34 35 36 37 38 38 38 39 40 41 41 41 41 40 39 39 39 39 39 38 38 37 36 36
27 27 28 28 29 29 29 29 29 29 29 29 30 31 32 33 33 33 33 33 34 35 36 37 38 39 39 40 41 41 41 40 39 38 38 38 38 37 37 36 36 35 34
Wind_Direction
253 252 253 254 254 255 256 258 259 262 264 265 266 269 270 271 272 273 273 274 276 277 279 280 282 283 284 284 285 286 287 287 288 289 289 289 289 288 289 289 288 288 289
253 253 253 254 254 255 256 257 258 260 263 264 265 267 268 270 272 272 274 274 275 276 278 279 280 281 283 284 284 284 286 287 288 288 289 288 288 288 288 288 287 288 288
255 255 255 255 255 256 256 257 258 260 262 264 265 267 268 269 271 273 273 274 275 276 278 279 280 280 282 283 284 284 285 286 287 287 288 288 288 287 287 288 288 288 288
254 255 256 255 256 256 257 257 259 260 261 263 264 266 268 268 270 271 272 273 275 276 278 279 280 281 281 282 283 284 284 286 286 287 287 287 287 287 287 288 288 288 288
254 255 256 256 256 257 257 257 259 261 261 262 263 265 267 269 271 272 271 272 274 276 277 278 279 280 281 282 284 284 285 285 286 287 287 287 287 287 287 288 288 288 288
255 254 255 256 257 258 258 258 259 260 261 262 263 265 267 268 270 271 273 273 274 275 276 277 278 279 281 282 283 284 285 285 285 286 286 286 286 286 287 287 287 288 288
256 255 255 256 257 258 258 258 259 260 261 262 263 264 266 267 270 271 272 273 274 274 275 277 277 279 280 282 283 283 284 285 284 285 286 287 287 287 287 287 287 287 287
257 257 256 256 256 257 258 258 259 260 261 262 263 265 266 267 269 270 270 271 273 273 274 277 278 279 280 282 282 282 283 283 284 285 287 288 288 288 287 287 287 287 287
257 257 256 256 256 256 257 258 259 261 263 264 264 265 266 267 268 269 270 271 272 273 275 277 278 278 279 281 282 282 282 283 283 285 287 288 288 288 288 288 287 287 287
258 257 256 256 256 256 256 258 259 261 263 265 266 266 267 267 269 268 269 270 271 273 274 275 276 278 279 280 281 282 282 283 283 285 285 286 287 288 288 288 288 287 288
256 256 255 255 256 256 257 259 260 261 263 266 267 267 267 268 269 269 268 269 271 273 274 274 276 277 278 279 281 282 282 283 284 284 284 286 288 288 288 288 287 288 288
256 256 255 255 257 258 258 259 261 263 265 266 267 266 267 268 270 270 270 270 272 273 274 276 277 278 278 279 280 281 282 283 284 285 285 287 288 288 288 288 288 288 288
256 255 255 256 257 258 259 260 261 263 265 267 267 267 267 268 270 270 272 273 273 274 275 277 278 279 279 280 280 281 282 283 284 285 286 287 288 289 290 289 289 289 289
256 255 256 258 258 259 260 260 262 263 264 266 266 266 268 269 270 272 273 274 273 274 275 277 278 279 280 281 281 281 282 284 285 286 286 287 288 290 291 291 291 291 290
256 256 256 257 258 259 260 261 261 263 264 264 265 266 268 270 271 272 273 274 274 275 276 277 277 279 281 281 282 283 284 285 285 285 286 289 290 291 291 292 293 292 290
257 257 257 257 258 259 259 260 262 264 265 265 267 268 269 270 271 272 273 275 276 277 278 278 279 280 281 281 282 284 286 288 288 287 287 289 290 291 292 293 294 293 292
256 256 257 258 259 259 261 262 263 264 266 266 267 268 269 269 269 272 273 274 277 278 279 280 281 280 281 281 283 285 287 289 290 290 290 290 291 291 292 293 293 293 291
258 257 257 258 259 261 262 263 264 265 266 266 267 267 268 269 270 271 273 274 277 279 279 280 281 281 282 283 284 286 289 290 291 291 291 291 291 291 291 293 293 292 290
259 258 258 258 259 260 262 263 264 265 265 266 267 267 267 268 269 271 272 274 276 277 278 280 281 282 283 285 286 288 290 291 292 294 294 293 294 294 293 293 293 290 289
260 259 259 259 259 259 260 261 262 263 263 265 265 266 267 267 269 271 273 275 276 277 278 280 282 282 284 286 288 289 291 292 293 294 295 296 297 297 295 295 294 292 289
261 260 260 260 260 259 259 260 261 262 262 263 265 266 267 269 270 271 273 275 277 278 279 281 282 283 285 287 289 291 293 293 294 295 296 297 298 298 297 296 295 293 289
263 262 261 260 259 259 261 262 262 262 262 265 266 266 268 269 271 272 274 275 277 278 280 281 283 285 287 288 289 291 294 295 296 296 296 298 299 299 298 296 295 292 289
262 260 259 260 260 260 261 261 261 261 263 265 265 266 267 269 271 272 274 275 276 278 280 282 285 286 288 288 290 292 294 296 297 296 297 298 299 300 299 297 296 295 291
261 260 261 260 261 261 260 260 262 264 264 264 265 267 268 270 273 275 275 275 277 280 282 283 286 288 289 289 290 293 295 296 297 297 297 298 299 300 299 298 296 294 292
261 261 262 262 262 262 262 262 264 265 265 266 267 269 270 272 274 275 275 276 279 281 282 284 287 289 289 290 292 294 296 296 297 297 297 298 300 300 299 298 295 292 291
263 263 264 264 263 264 265 264 264 266 266 268 270 271 272 273 274 275 277 278 280 282 284 285 288 289 290 291 293 295 296 296 297 297 298 299 300 301 300 298 295 291 290
Height
5815 5816 5818 5820 5821 5822 5823 5824 5825 5825 5826 5826 5826 5826 5826 5826 5825 5825 5825 5824 5824 5824 5823 5822 5821 5820 5819 5817 5816 5815 5813 5812 5810 5809 5807 5805 5803 5801 5799 5797 5795 5794 5792
5807 5808 5810 5812 5813 5814 5815 5817 5817 5818 5818 5819 5819 5819 5819 5819 5819 5818 5818 5818 5818 5817 5816 5815 5815 5814 5812 5811 5809 5808 5806 5805 5804 5802 5800 5798 5796 5794 5793 5790 5788 5786 5784
5799 5800 5802 5803 5805 5806 5807 5809 5810 5810 5811 5811 5812 5812 5812 5812 5812 5812 5811 5811 5810 5810 5809 5808 5808 5807 5805 5804 5802 5801 5799 5798 5796 5795 5793 5791 5789 5787 5785 5783 5781 5779 5777
5789 5791 5793 5795 5796 5798 5799 5801 5802 5802 5803 5804 5804 5804 5804 5804 5804 5804 5804 5803 5803 5802 5802 5801 5800 5799 5798 5797 5795 5794 5792 5790 5789 5787 5785 5783 5781 5779 5777 5775 5773 5771 5768
5780 5782 5784 5786 5787 5789 5790 5792 5793 5794 5794 5795 5796 5796 5796 5797 5796 5796 5796 5795 5795 5795 5794 5793 5792 5791 5790 5789 5787 5786 5784 5783 5781 5779 5777 5775 5773 5771 5769 5766 5764 5762 5759
5771 5773 5775 5777 5778 5780 5781 5783 5784 5785 5786 5786 5787 5788 5788 5788 5788 5788 5788 5787 5787 5787 5786 5785 5784 5783 5782 5781 5779 5777 5776 5774 5772 5770 5768 5766 5764 5762 5759 5757 5755 5752 5750
5763 5764 5766 5767 5769 5770 5772 5773 5775 5775 5776 5777 5778 5779 5779 5779 5779 5779 5779 5779 5779 5778 5777 5776 5775 5774 5773 5772 5770 5769 5767 5765 5763 5761 5759 5757 5755 5752 5750 5747 5745 5742 5740
5754 5755 5756 5758 5759 5761 5762 5764 5765 5766 5767 5767 5768 5769 5770 5771 5770 5770 5770 5770 5770 5769 5768 5767 5766 5765 5764 5762 5761 5760 5758 5756 5754 5752 5750 5747 5745 5742 5740 5737 5734 5732 5729
5744 5746 5747 5748 5750 5751 5753 5754 5756 5757 5758 5758 5758 5759 5760 5761 5761 5761 5761 5760 5760 5760 5759 5758 5757 5756 5755 5753 5752 5750 5749 5747 5745 5742 5740 5738 5735 5732 5729 5727 5724 5721 5718
5735 5736 5737 5739 5740 5742 5743 5745 5746 5747 5748 5749 5749 5749 5750 5750 5751 5752 5751 5751 5750 5750 5749 5748 5748 5746 5745 5744 5743 5741 5739 5737 5735 5732 5730 5727 5725 5722 5719 5716 5713 5710 5707
5726 5727 5729 5730 5731 5732 5734 5735 5737 5738 5739 5739 5740 5740 5740 5740 5740 5741 5741 5741 5740 5740 5739 5738 5738 5737 5736 5734 5733 5731 5729 5727 5725 5722 5719 5717 5714 5711 5708 5705 5701 5698 5695
5717 5718 5719 5721 5722 5723 5725 5726 5727 5728 5729 5730 5730 5730 5730 5730 5730 5730 5731 5731 5731 5730 5729 5728 5728 5727 5726 5725 5723 5721 5719 5717 5714 5711 5709 5706 5703 5699 5696 5693 5689 5686 5682
5708 5709 5711 5712 5713 5714 5716 5717 5718 5719 5720 5720 5721 5720 5720 5720 5721 5721 5721 5721 5720 5720 5719 5718 5717 5716 5715 5714 5712 5710 5708 5706 5703 5700 5697 5695 5691 5688 5684 5681 5677 5673 5669
5699 5700 5702 5703 5704 5705 5707 5708 5709 5710 5711 5711 5711 5711 5711 5711 5711 5711 5711 5711 5711 5711 5710 5709 5707 5706 5705 5703 5701 5699 5697 5694 5692 5689 5686 5683 5679 5676 5672 5668 5664 5660 5656
5690 5691 5692 5694 5695 5696 5698 5699 5700 5701 5702 5702 5702 5702 5702 5702 5702 5702 5702 5701 5701 5701 5701 5700 5698 5696 5694 5692 5690 5688 5685 5683 5680 5677 5674 5670 5667 5664 5660 5656 5651 5647 5642
5680 5682 5683 5685 5686 5687 5689 5690 5691 5692 5692 5693 5693 5693 5693 5693 5693 5693 5693 5692 5691 5691 5691 5690 5688 5686 5684 5682 5679 5677 5674 5671 5668 5665 5662 5658 5655 5651 5647 5643 5638 5633 5629
5671 5673 5674 5675 5677 5678 5679 5681 5682 5683 5683 5684 5684 5684 5684 5684 5684 5684 5683 5683 5682 5681 5680 5680 5678 5676 5673 5671 5669 5666 5663 5660 5657 5653 5650 5646 5643 5639 5634 5630 5625 5620 5615
5662 5663 5665 5666 5668 5669 5670 5672 5673 5674 5674 5674 5674 5675 5675 5674 5675 5675 5674 5673 5672 5671 5670 5670 5668 5665 5663 5661 5658 5656 5653 5649 5646 5642 5638 5634 5630 5625 5621 5616 5611 5606 5602
5653 5654 5655 5657 5659 5660 5661 5663 5663 5664 5664 5665 5665 5665 5665 5665 5665 5665 5665 5664 5663 5662 5661 5660 5658 5656 5653 5650 5648 5645 5642 5638 5635 5631 5626 5622 5617 5612 5607 5602 5597 5593 5589
5644 5645 5646 5648 5649 5651 5652 5653 5654 5655 5655 5656 5656 5656 5656 5656 5656 5656 5655 5655 5654 5653 5651 5650 5648 5646 5643 5640 5637 5634 5631 5627 5623 5619 5614 5610 5605 5599 5594 5589 5585 5580 5576
5635 5636 5637 5639 5640 5642 5643 5644 5645 5646 5646 5647 5647 5647 5647 5647 5647 5647 5646 5645 5644 5643 5641 5640 5638 5636 5633 5630 5627 5624 5620 5617 5612 5607 5602 5598 5593 5588 5582 5578 5573 5568 5564
5627 5628 5629 5630 5632 5633 5634 5635 5636 5637 5637 5638 5638 5638 5638 5638 5638 5637 5637 5636 5635 5633 5632 5630 5628 5626 5623 5620 5616 5613 5609 5606 5602 5597 5591 5587 5581 5576 5571 5566 5562 5557 5553
5620 5620 5621 5622 5623 5624 5625 5626 5627 5628 5628 5629 5629 5629 5629 5629 5628 5628 5627 5626 5625 5623 5622 5620 5618 5615 5612 5610 5606 5603 5598 5594 5590 5585 5580 5576 5570 5565 5560 5555 5550 5546 5542
5612 5612 5613 5615 5616 5616 5617 5618 5619 5619 5619 5620 5620 5620 5620 5620 5619 5619 5618 5617 5615 5614 5612 5610 5608 5605 5601 5598 5595 5591 5587 5583 5579 5574 5569 5565 5560 5555 5550 5545 5540 5536 5532
5604 5605 5606 5606 5607 5608 5609 5609 5610 5610 5611 5611 5611 5611 5611 5611 5610 5609 5609 5607 5606 5604 5602 5599 5597 5594 5591 5587 5584 5580 5576 5572 5568 5564 5559 5554 5550 5545 5540 5536 5531 5527 5523
5596 5597 5597 5598 5599 5600 5600 5601 5601 5602 5602 5602 5602 5602 5602 5602 5601 5600 5599 5598 5596 5594 5592 5589 5587 5583 5580 5577 5573 5569 5565 5561 5557 5554 5549 5545 5540 5535 5532 5527 5522 5518 5514